RH
60 54 90 85 88 91 92 92 89 86 86 86 87 90 89 88 87 87 83 83 81 78 78 79 80 74 71 70 78 84 87 87 86 83 79 75 75 75 77 79 78 40 77
64 54 92 88 86 89 90 90 90 89 83 81 81 80 84 82 80 84 83 83 82 77 75 78 80 76 72 78 87 91 91 89 88 86 83 78 75 74 77 79 76 56 78
66 57 52 88 84 84 86 86 86 83 85 85 77 81 83 78 80 78 78 81 81 76 76 75 74 78 80 88 90 89 88 88 88 87 85 42 41 71 76 80 79 80 75
65 50 48 91 87 85 87 85 84 81 84 84 82 82 83 83 79 88 84 80 79 77 76 76 74 75 78 85 90 90 89 88 89 87 51 37 35 73 78 80 79 75 75
58 54 58 90 89 88 86 85 83 83 81 81 78 78 80 78 85 84 89 82 80 78 76 74 73 78 86 89 90 92 91 90 90 74 36 40 35 64 78 81 82 82 83
57 53 76 91 89 87 83 82 83 83 82 82 82 77 77 74 73 75 81 82 77 75 71 73 75 80 84 86 90 92 93 92 94 42 38 48 44 76 78 82 84 83 83
58 55 57 94 88 82 76 75 81 84 82 81 80 82 80 79 80 82 82 81 83 77 75 75 83 82 83 86 90 91 94 94 53 35 39 41 46 77 77 79 83 84 82
49 54 55 85 93 91 86 81 82 83 84 83 83 83 83 84 82 82 84 84 86 86 82 83 87 86 84 87 88 90 91 95 59 38 39 38 68 79 76 79 83 82 83
50 52 51 53 67 89 91 90 92 89 86 87 87 88 90 90 90 87 84 82 82 83 83 84 85 84 81 82 87 88 93 90 49 38 39 37 82 81 77 79 80 80 82
48 46 52 51 51 57 55 87 86 89 90 90 92 93 95 94 91 89 88 84 85 84 84 85 86 85 82 82 86 90 92 92 55 42 39 39 79 79 78 78 78 79 81
40 45 58 54 58 56 48 51 70 81 85 87 84 92 84 63 76 79 91 88 90 87 88 87 89 89 90 89 88 89 92 60 55 44 39 73 74 71 75 77 80 81 80
38 36 43 59 58 54 40 48 58 58 57 57 57 64 58 76 80 89 92 90 88 90 90 91 89 88 85 49 54 69 54 59 66 52 42 85 79 74 70 77 80 80 79
33 33 38 50 58 55 53 46 49 73 63 56 64 62 74 82 90 82 97 98 95 89 92 93 86 75 71 63 62 65 84 93 90 84 63 83 83 79 71 72 78 76 77
31 31 33 46 55 56 44 44 46 44 47 50 60 68 72 76 78 88 92 94 96 93 93 91 95 97 88 71 82 92 80 89 86 86 63 76 84 81 78 71 75 73 77
28 30 30 37 45 47 49 45 46 45 43 46 47 56 54 61 74 76 78 81 86 94 96 94 78 80 91 92 90 87 80 80 82 88 92 79 87 83 82 74 70 74 73
24 26 26 29 37 37 42 46 42 39 35 35 40 50 58 56 71 73 85 84 88 91 91 86 89 82 87 84 83 75 74 70 78 81 77 78 81 77 79 82 75 74 73
20 23 23 25 30 33 36 32 28 27 28 32 39 53 55 54 64 68 62 66 66 82 87 92 94 93 89 84 77 65 67 75 82 80 76 81 78 74 81 84 85 78 78
18 20 21 16 25 28 29 24 22 24 26 29 37 41 48 49 49 52 52 58 62 65 74 82 89 90 97 97 94 82 72 62 70 72 76 81 84 57 55 80 83 86 80
19 18 22 24 24 24 26 25 30 33 25 26 31 31 39 37 40 36 39 44 47 43 50 53 59 65 64 75 74 74 85 82 67 65 70 83 86 85 58 46 80 82 85
22 20 22 22 26 26 24 26 25 26 26 25 25 26 31 31 33 31 31 39 34 32 34 36 39 37 44 61 57 70 83 77 79 75 71 80 85 85 89 70 36 53 90
24 22 21 23 26 23 23 23 23 24 25 26 23 27 30 26 28 32 26 29 32 34 38 37 34 36 34 43 43 59 66 86 77 79 74 62 77 85 85 80 53 32 47
24 23 20 20 23 22 19 20 22 23 21 21 24 30 30 32 30 27 30 28 32 29 34 37 39 34 31 35 42 43 66 64 73 77 75 76 69 71 86 81 65 41 35
29 27 23 20 20 22 23 21 22 24 26 23 23 23 28 34 34 37 34 34 34 34 32 37 36 38 34 30 36 45 47 65 76 60 70 84 81 82 76 82 80 50 38
30 29 26 22 20 21 26 22 28 21 20 19 24 23 26 32 36 36 38 40 44 39 39 36 28 37 38 36 29 26 46 41 43 48 55 71 90 88 78 83 82 71 48
29 32 31 24 23 22 27 30 28 30 24 25 28 34 34 34 35 35 37 43 46 43 43 46 46 41 36 36 34 32 32 33 38 48 44 44 69 81 93 79 81 92 77
31 34 34 28 24 26 29 33 36 35 32 30 30 31 28 28 28 32 32 38 41 43 44 43 46 47 46 42 37 36 33 33 31 32 44 45 43 50 79 85 92 93 93
Wind_Speed
6 8 7 6 5 4 4 6 5 5 1 11 12 11 11 11 10 9 11 9 11 11 12 14 13 11 11 9 10 8 9 9 8 10 10 10 10 10 9 7 5 10 9
3 7 8 5 6 4 4 6 6 7 4 2 8 10 11 10 11 10 11 11 8 10 10 11 10 11 10 11 10 8 8 8 8 9 9 9 7 8 10 7 7 12 8
5 7 9 5 6 7 6 6 7 6 9 13 8 9 11 12 6 10 9 10 10 9 8 9 10 10 9 11 9 8 7 8 7 7 9 9 9 8 8 8 4 10 8
3 5 6 6 7 5 8 9 7 6 6 8 4 11 5 7 12 12 27 9 8 8 9 8 12 10 6 8 10 8 7 6 6 6 9 5 6 10 10 10 9 12 11
5 4 8 5 6 5 6 8 7 5 5 5 1 3 6 4 20 27 22 12 8 7 7 5 6 6 7 8 5 8 8 6 7 8 7 5 5 13 11 11 12 12 13
4 6 8 4 4 2 1 3 5 7 6 4 1 2 5 2 2 10 9 11 7 3 4 4 2 4 4 6 4 5 8 7 8 10 6 4 8 15 12 12 13 10 13
5 4 7 7 4 3 3 2 2 1 2 3 3 6 6 7 5 4 4 5 1 2 3 5 9 6 5 3 6 5 6 9 11 7 6 7 9 12 12 9 11 11 11
7 5 5 8 6 7 7 6 5 6 6 5 5 5 6 7 3 1 1 0 2 2 3 7 9 10 6 2 4 3 5 8 9 7 7 7 9 9 13 14 11 10 11
6 5 4 4 4 6 6 8 8 6 5 3 3 3 3 4 6 6 5 4 1 2 2 5 7 7 9 5 2 1 3 7 11 6 6 6 12 7 12 16 14 12 11
6 7 6 4 5 4 4 9 8 7 6 4 3 4 3 2 3 2 5 5 7 3 4 5 6 7 7 6 4 3 3 6 12 7 5 6 7 9 13 14 14 13 12
5 6 6 5 4 3 3 4 3 2 1 3 3 4 2 4 9 15 21 25 26 10 5 3 7 8 9 8 5 4 2 4 8 5 4 7 3 11 16 13 13 14 13
4 6 6 5 4 3 1 0 3 5 6 6 5 4 3 5 8 10 6 10 13 19 26 5 5 6 8 5 7 7 3 3 3 7 7 9 5 13 17 15 13 14 15
4 5 6 5 4 3 3 1 3 3 2 4 5 4 5 3 1 2 1 2 4 7 3 9 9 5 6 6 5 5 4 3 4 4 8 3 7 15 19 17 16 16 14
3 3 5 6 6 6 4 4 5 5 5 5 5 5 3 0 1 4 4 8 6 4 5 6 8 3 13 12 11 8 10 7 6 4 7 9 8 15 21 22 20 19 18
3 3 3 5 5 5 5 5 6 6 5 5 5 6 4 4 3 2 2 1 2 5 6 8 8 7 8 9 6 7 10 11 11 6 5 7 11 16 20 25 22 23 22
3 3 4 5 5 5 6 7 5 5 5 5 6 6 6 4 4 4 3 4 4 5 7 7 10 8 8 8 10 11 13 10 12 12 10 9 8 15 20 24 27 25 25
5 5 5 5 6 6 7 6 5 6 5 6 6 7 8 6 6 4 3 4 5 5 7 10 10 10 9 8 11 9 9 10 9 12 12 9 8 12 18 22 24 24 25
5 7 5 4 6 6 6 5 5 6 5 6 6 6 7 7 6 5 3 3 4 3 4 4 4 4 4 4 6 8 10 12 13 14 12 11 7 7 13 23 24 24 25
7 7 7 6 6 6 6 6 6 5 4 5 5 5 5 5 5 4 3 3 4 5 5 6 5 5 5 5 8 10 8 9 13 10 12 12 11 8 7 14 25 24 23
8 7 6 6 6 6 5 5 4 4 4 3 4 5 4 4 3 3 3 3 3 3 4 6 7 6 6 6 9 9 9 11 11 9 12 10 11 13 9 13 15 17 23
9 9 8 8 7 6 6 5 5 4 4 3 3 3 4 2 1 2 3 4 4 3 5 5 6 7 7 7 8 8 8 10 13 8 9 11 13 12 11 11 12 12 14
13 12 10 9 9 7 6 4 3 3 3 2 3 4 5 5 4 3 4 5 5 6 7 6 7 6 6 5 6 9 6 6 5 9 10 10 15 11 11 12 16 19 16
15 13 12 11 10 10 7 5 5 5 5 6 7 6 6 7 6 6 6 6 7 6 7 8 9 10 8 7 4 5 6 5 9 6 7 9 11 10 12 12 13 16 18
15 14 13 12 12 10 10 7 8 7 6 5 4 5 6 5 6 7 7 8 8 8 9 9 9 10 11 11 9 6 8 10 7 9 5 6 4 10 14 11 10 12 18
14 14 14 14 13 12 10 10 8 9 7 6 5 7 6 5 6 7 7 8 9 9 10 12 12 13 11 12 11 11 11 10 12 11 13 10 5 5 4 10 11 8 12
14 14 13 14 15 13 11 11 12 12 10 7 6 5 4 4 5 6 7 8 9 10 12 12 14 15 14 14 13 13 13 11 11 11 12 12 13 9 6 6 10 10 10
Wind_Direction
59 102 108 97 74 60 81 88 50 49 184 185 170 169 168 167 156 161 164 166 167 171 161 156 148 149 158 155 139 139 128 132 133 130 128 130 130 132 127 124 181 149 116
93 99 108 122 120 93 52 64 47 24 60 237 211 196 187 175 178 175 177 161 171 180 174 150 157 153 157 141 133 130 129 133 134 136 132 133 134 143 141 156 246 103 116
92 139 143 122 126 125 110 69 37 43 51 31 303 206 187 197 179 300 207 185 176 176 165 142 144 158 152 130 127 134 139 138 155 149 174 202 162 156 157 170 128 123 139
151 119 113 134 140 146 144 135 122 79 34 72 350 327 260 88 83 5 275 222 199 180 178 161 142 156 153 123 133 146 145 152 158 158 211 231 151 159 167 177 167 161 159
101 101 106 154 134 170 155 130 136 129 120 93 168 340 23 87 158 206 232 216 211 190 186 182 166 120 123 110 134 151 154 170 164 205 237 224 216 146 173 182 182 177 181
87 109 105 87 123 123 160 113 148 149 146 160 100 10 85 78 30 209 212 209 213 224 182 184 141 104 99 138 152 180 163 167 189 224 227 168 268 135 175 194 221 146 135
96 92 89 34 51 75 49 24 318 129 111 87 53 25 23 83 47 6 314 277 129 167 160 151 142 131 115 196 167 199 191 167 223 224 220 226 224 152 181 169 146 151 150
70 60 62 102 47 37 27 360 348 1 7 10 13 21 7 2 29 203 65 270 245 191 166 139 139 139 126 172 205 194 230 207 210 236 239 225 124 171 196 183 162 161 152
50 41 39 31 73 112 60 15 355 346 340 343 340 343 356 4 4 347 347 322 244 154 176 143 137 145 146 141 151 131 267 261 262 217 239 254 129 206 235 185 173 172 164
29 11 355 345 14 16 6 56 8 358 341 329 304 313 326 344 47 1 330 310 322 295 261 192 164 152 145 128 112 69 322 270 257 245 237 251 127 220 242 196 178 168 169
42 22 2 341 345 338 358 40 241 135 285 210 182 80 182 51 46 38 33 16 354 299 270 193 162 162 146 135 109 69 297 264 300 272 261 108 164 245 240 208 192 168 177
51 38 20 346 331 287 190 322 84 74 57 48 55 74 134 155 132 119 83 350 8 339 346 245 189 164 195 198 163 182 211 234 262 298 290 112 207 246 239 228 192 186 181
80 50 25 15 4 319 70 108 86 74 89 69 52 62 93 82 134 187 278 86 342 305 56 2 260 234 253 246 230 205 193 214 255 275 305 168 213 246 243 232 207 195 190
137 92 69 61 74 63 82 89 97 91 87 81 68 71 65 127 220 164 163 161 164 230 276 243 232 270 276 235 215 195 205 196 186 202 237 267 225 247 247 243 218 200 196
159 130 95 84 88 96 98 88 83 91 83 85 74 59 50 65 48 56 345 359 191 201 228 251 284 241 225 250 249 235 219 220 218 205 190 247 226 241 250 247 233 208 198
146 111 87 93 90 87 91 93 97 85 95 74 66 56 55 54 50 60 40 2 340 277 262 257 263 268 259 246 243 245 244 242 215 227 225 218 223 246 249 251 248 223 206
163 147 127 116 112 111 111 99 86 83 76 76 81 67 63 61 69 55 14 348 357 355 312 249 256 250 266 272 273 270 273 258 236 212 220 224 235 203 234 245 252 240 217
183 172 154 139 132 117 108 106 95 91 84 82 81 81 72 73 69 75 56 11 351 360 2 5 352 349 316 265 257 240 241 247 233 236 219 218 233 205 228 226 239 244 230
194 188 166 158 143 129 117 101 101 108 96 88 91 88 82 71 58 48 47 30 349 354 6 358 358 346 322 311 308 277 223 228 246 234 228 216 214 228 225 248 221 237 237
191 201 179 185 158 151 139 137 140 141 133 135 110 101 114 101 86 38 54 38 356 4 4 357 348 341 322 322 306 283 267 245 236 223 225 218 218 223 221 238 242 225 225
199 206 197 187 176 184 186 193 183 171 158 162 161 149 164 113 130 34 360 331 326 351 354 353 342 338 333 338 309 318 284 249 254 223 233 227 210 209 219 217 248 243 209
210 212 202 205 189 200 198 196 224 200 198 252 220 201 233 221 246 292 316 317 315 314 312 320 326 325 327 343 326 305 296 292 266 272 247 227 234 220 209 220 229 237 234
217 212 217 210 201 201 202 197 200 209 225 219 205 224 202 236 242 257 272 277 287 282 300 311 311 308 314 314 305 307 304 308 332 297 280 242 238 217 227 211 227 244 235
224 220 221 218 212 208 205 221 233 255 263 258 262 266 274 247 253 257 270 272 269 277 282 284 286 303 300 300 301 279 253 281 281 293 283 314 270 238 226 224 221 222 243
224 222 223 223 222 217 220 232 235 243 251 257 252 261 265 272 273 280 277 275 273 275 279 282 282 282 284 288 289 295 280 263 258 266 280 281 274 302 296 245 231 222 239
216 220 225 227 224 224 222 225 232 245 249 250 239 263 269 287 291 285 296 293 288 283 279 279 280 275 273 274 277 278 277 272 274 265 262 270 275 286 266 281 239 228 219